Boscobel, WI

1:49 AM CDT on May 27, 2017 (GMT -0500)
Boscobel

Weather History for KOVS - March, 2013

Change the Weather History Date:

Wednesday, March 20, 2013

  Actual Average (KPDC) Record (KPDC)
Temperature  
Mean Temperature 14 °F -  
Max Temperature 21 °F 47 °F 78 °F (2012)
Min Temperature 8 °F 27 °F -10 °F (1965)
Degree Days  
Heating Degree Days 50    
Moisture  
Dew Point 3 °F    
Average Humidity 62    
Maximum Humidity 85    
Minimum Humidity 48    
Precipitation  
Precipitation 0.00 in - - ()
Sea Level Pressure  
Sea Level Pressure 30.15 in    
Wind  
Wind Speed 7 mph (WNW)    
Max Wind Speed 16 mph    
Max Gust Speed 25 mph    
Visibility 9 miles    
Events      
Averages and records for this station are not official NWS values.
T = Trace of Precipitation, MM = Missing Value Source: NWS Daily Summary

Daily Weather History Graph

Daily Weather History Graph

Search for Another Location

Airport or City:

Trip Planner

Search our weather history database for the weather conditions in past years. The results will help you decide how hot, cold, wet, or windy it might be!

Date:

Astronomy

Mar. 20, 2013 Rise Set
Actual Time 7:05 AM CDT 7:15 PM CDT
Civil Twilight 6:37 AM CDT 7:43 PM CDT
Nautical Twilight 6:03 AM CDT 8:17 PM CDT
Astronomical Twilight 5:29 AM CDT 8:51 PM CDT
Moon 12:42 PM CDT (3/20) 2:54 AM CDT (3/20)
Length of Visible Light 13h 06m
Length of Day
12h 09m
First Quarter, 59% of the Moon is Illuminated
Mar 20
First Quarter
Mar 27
Full
Apr 2
Last Quarter
Apr 10
New
Apr 18
First Quarter

Hourly Weather History & Observations

Time (CDT) Temp. Windchill Dew Point Humidity Pressure Visibility Wind Dir Wind Speed Gust Speed Precip Events Conditions
12:53 AM 14.0 °F 5.1 °F 1.9 °F 59% 30.17 in 10.0 mi West 5.8 mph - N/A   Clear
1:53 AM 12.9 °F 3.8 °F 1.0 °F 59% 30.18 in 10.0 mi Variable 5.8 mph - N/A   Clear
2:53 AM 12.0 °F 1.5 °F -0.0 °F 59% 30.19 in 10.0 mi West 6.9 mph - N/A   Clear
3:53 AM 10.9 °F 1.4 °F -0.9 °F 59% 30.18 in 10.0 mi West 5.8 mph - N/A   Clear
4:53 AM 10.0 °F -0.9 °F -2.9 °F 56% 30.19 in 10.0 mi WSW 6.9 mph - N/A   Clear
5:53 AM 9.0 °F -3.2 °F -2.9 °F 59% 30.19 in 10.0 mi West 8.1 mph - N/A   Clear
6:53 AM 9.0 °F -0.9 °F -2.9 °F 59% 30.20 in 10.0 mi West 5.8 mph - N/A   Clear
7:53 AM 9.0 °F -0.9 °F -2.0 °F 61% 30.21 in 10.0 mi West 5.8 mph - N/A   Clear
8:53 AM 10.9 °F -4.1 °F -2.0 °F 56% 30.20 in 10.0 mi WNW 12.7 mph 19.6 mph N/A   Clear
9:53 AM 12.9 °F 2.6 °F -0.0 °F 56% 30.19 in 10.0 mi West 6.9 mph 21.9 mph N/A   Clear
10:53 AM 15.1 °F -0.1 °F 1.0 °F 54% 30.19 in 10.0 mi WNW 15.0 mph 24.2 mph N/A   Clear
11:53 AM 17.1 °F 4.3 °F 1.9 °F 52% 30.17 in 10.0 mi WNW 11.5 mph 20.7 mph N/A   Clear
12:53 PM 19.0 °F 5.0 °F 3.0 °F 50% 30.16 in 10.0 mi WNW 15.0 mph 23.0 mph N/A   Partly Cloudy
1:53 PM 19.0 °F 7.5 °F 3.0 °F 50% 30.14 in 10.0 mi West 10.4 mph 17.3 mph N/A   Clear
2:53 PM 21.9 °F 11.0 °F 5.0 °F 48% 30.12 in 10.0 mi West 10.4 mph 18.4 mph N/A   Mostly Cloudy
3:53 PM 21.9 °F 8.2 °F 5.0 °F 48% 30.12 in 10.0 mi WNW 16.1 mph 25.3 mph N/A   Mostly Cloudy
4:53 PM 21.9 °F 13.4 °F 5.0 °F 48% 30.12 in 10.0 mi West 6.9 mph 20.7 mph N/A   Overcast
5:53 PM 21.0 °F 9.9 °F 5.0 °F 50% 30.13 in 10.0 mi West 10.4 mph 20.7 mph N/A   Overcast
6:53 PM 19.9 °F 7.9 °F 3.9 °F 50% 30.14 in 10.0 mi WNW 11.5 mph 18.4 mph N/A   Overcast
7:53 PM 19.0 °F 11.1 °F 3.9 °F 52% 30.14 in 10.0 mi WNW 5.8 mph 16.1 mph N/A   Overcast
8:53 PM 18.0 °F 12.7 °F 5.0 °F 57% 30.14 in 10.0 mi WNW 3.5 mph - N/A   Overcast
9:18 PM 17.6 °F 7.3 °F 5.0 °F 58% 30.10 in 10.0 mi NNW 8.1 mph - N/A   Overcast
9:53 PM 17.1 °F 10.0 °F 7.0 °F 65% 30.15 in 10.0 mi NW 4.6 mph - N/A   Overcast
10:08 PM 15.8 °F 8.6 °F 6.8 °F 68% 30.11 in 10.0 mi WNW 4.6 mph - N/A   Scattered Clouds
10:53 PM 12.0 °F - 5.0 °F 73% 30.16 in 7.0 mi Calm Calm - N/A   Clear
10:56 PM 12.2 °F - 5.0 °F 73% 30.11 in 1.5 mi Calm Calm - N/A   Haze
11:03 PM 10.4 °F - 5.0 °F 79% 30.11 in 0.8 mi Calm Calm - N/A   Haze
11:09 PM 10.4 °F - 5.0 °F 79% 30.11 in 1.2 mi Calm Calm - N/A   Haze
11:21 PM 10.4 °F - 3.2 °F 73% 30.11 in 10.0 mi Calm Calm - N/A   Clear
11:32 PM 8.6 °F - 3.2 °F 79% 30.11 in 0.8 mi Calm Calm - N/A   Haze
11:43 PM 8.6 °F - 5.0 °F 85% 30.11 in 2.0 mi Calm Calm - N/A   Clear
11:50 PM 8.6 °F - 3.2 °F 79% 30.11 in 10.0 mi Calm Calm - N/A   Clear
11:53 PM 9.0 °F - 3.9 °F 80% 30.16 in 10.0 mi Calm Calm - N/A   Clear